Главная страница
METAR-TAF:

METAR-TAF

Аэропорты :

Westminster, Мэриленд, США

широта: 39-36-30N, долгота: 077-00-28W, высота над уровнем моря: 240 м

Текущие метеонаблюдения

Эта сводка был подготовлена 28 минут назад, в 16:40 UTC
Ветер 3 Узел от западный-юго-западный
Температура 2°C
Влажность 64%
Давление 1020 hPa
Видимость: 16.1 км
Сплошная облачность на высоте 3200 фута

METAR: KDMW 161640Z AUTO 25003KT 10SM OVC032 02/M04 A3012 RMK AO2

Время: 12:08 (17:08 UTC)


TAF: отсутствует

Метеонаблюдения и прогнозы для более 4000 аэропортов (сводки METAR и TAF).

Имеющиеся станции представлены на карте желтыми и красными точками.

Чтобы увидеть название станции, наведите на нее мышь.

Затем щелкните, чтобы увидеть метеонаблюдения и метеопрогнозы.

Управление картой: чтобы увеличить масштаб, щелкните зеленые кнопки с черным крестиком; чтобы уменьшить масштаб, щелкните зеленую кнопку с тире; для просмотра соседних карт щелкайте зеленые стрелки.


METAR-TAF: